TimePDT,TemperatureF,Dew PointF,Humidity,Sea Level PressureIn,VisibilityMPH,Wind Direction,Wind SpeedMPH,Gust SpeedMPH,PrecipitationIn,Events,Conditions,WindDirDegrees,DateUTC
12:53 AM,53.1,51.1,93,29.93,10.0,Calm,Calm,-,N/A,,Overcast,0,2012-10-30 07:53:00
1:53 AM,53.1,51.1,93,29.92,10.0,Calm,Calm,-,0.00,Rain,Light Rain,0,2012-10-30 08:53:00
2:53 AM,52.0,50.0,93,29.91,10.0,Calm,Calm,-,0.00,Rain,Light Rain,0,2012-10-30 09:53:00
4:50 AM,51.8,50.0,94,29.87,1.5,Calm,Calm,-,0.00,Rain,Light Rain,0,2012-10-30 11:50:00
4:53 AM,51.1,50.0,96,29.87,1.2,Calm,Calm,-,0.00,Rain,Light Rain,0,2012-10-30 11:53:00
5:00 AM,51.8,50.0,94,29.87,3.0,Calm,Calm,-,0.00,Rain,Light Rain,0,2012-10-30 12:00:00
5:35 AM,53.6,51.8,94,29.86,10.0,Calm,Calm,-,0.00,Rain,Light Rain,0,2012-10-30 12:35:00
5:43 AM,51.8,51.8,100,29.86,10.0,Calm,Calm,-,0.00,,Overcast,0,2012-10-30 12:43:00
5:53 AM,52.0,51.1,97,29.86,10.0,Calm,Calm,-,0.00,Rain,Light Rain,0,2012-10-30 12:53:00
6:49 AM,50.0,48.2,94,29.87,1.8,Calm,Calm,-,0.00,Rain,Light Rain,0,2012-10-30 13:49:00
6:50 AM,50.0,48.9,96,29.87,1.8,Calm,Calm,-,0.00,Rain,Light Rain,0,2012-10-30 13:50:00
7:33 AM,50.0,48.2,94,29.86,0.8,ESE,3.5,-,0.01,Rain,Light Rain,110,2012-10-30 14:33:00
7:53 AM,50.0,48.9,96,29.86,0.8,Calm,Calm,-,0.01,,Mist,0,2012-10-30 14:53:00
8:02 AM,50.0,48.2,94,29.86,2.0,Calm,Calm,-,N/A,,Overcast,0,2012-10-30 15:02:00
8:18 AM,50.0,48.2,94,29.87,3.0,Calm,Calm,-,0.00,Rain,Light Rain,0,2012-10-30 15:18:00
8:53 AM,51.1,50.0,96,29.88,3.0,Calm,Calm,-,0.00,Rain,Light Rain,0,2012-10-30 15:53:00
9:44 AM,51.8,51.8,100,29.88,1.8,Calm,Calm,-,0.05,Rain,Rain,0,2012-10-30 16:44:00
9:51 AM,51.8,50.0,94,29.87,2.0,Calm,Calm,-,0.06,Rain,Light Rain,0,2012-10-30 16:51:00
9:52 AM,51.1,50.0,96,29.87,2.0,Calm,Calm,-,0.06,Rain,Light Rain,0,2012-10-30 16:52:00
10:08 AM,51.8,51.8,100,29.87,4.0,Calm,Calm,-,0.01,Rain,Light Rain,0,2012-10-30 17:08:00
10:25 AM,51.8,51.8,100,29.87,5.0,Calm,Calm,-,0.01,Rain,Light Rain,0,2012-10-30 17:25:00
10:49 AM,51.8,51.8,100,29.87,4.0,Calm,Calm,-,0.01,Rain,Light Rain,0,2012-10-30 17:49:00
10:53 AM,52.0,51.1,97,29.87,5.0,Calm,Calm,-,0.01,Rain,Light Rain,0,2012-10-30 17:53:00
11:15 AM,51.8,51.8,100,29.87,4.0,Calm,Calm,-,0.00,Rain,Light Rain,0,2012-10-30 18:15:00
11:41 AM,53.6,53.6,100,29.86,6.0,Calm,Calm,-,0.00,Rain,Light Rain,0,2012-10-30 18:41:00
11:53 AM,54.0,53.1,97,29.86,10.0,ENE,4.6,-,0.00,Rain,Light Rain,70,2012-10-30 18:53:00
12:42 PM,53.6,53.6,100,29.85,6.0,Calm,Calm,-,0.01,Rain,Light Rain,0,2012-10-30 19:42:00
12:53 PM,54.0,53.1,97,29.85,8.0,NE,3.5,-,0.01,Rain,Light Rain,40,2012-10-30 19:53:00
1:16 PM,53.6,53.6,100,29.85,9.0,NNE,3.5,-,0.00,Rain,Light Rain,30,2012-10-30 20:16:00
1:53 PM,54.0,53.1,97,29.84,6.0,North,3.5,-,0.00,Rain,Light Rain,360,2012-10-30 20:53:00
2:11 PM,53.6,53.6,100,29.84,4.0,North,4.6,-,0.01,Rain,Light Rain,10,2012-10-30 21:11:00
2:33 PM,53.6,53.6,100,29.83,4.0,NNE,4.6,-,0.03,Rain,Light Rain,20,2012-10-30 21:33:00
2:53 PM,53.1,52.0,96,29.83,5.0,NNE,5.8,-,0.03,Rain,Light Rain,20,2012-10-30 21:53:00
3:14 PM,53.6,51.8,94,29.82,5.0,NNE,6.9,-,0.01,Rain,Light Rain,30,2012-10-30 22:14:00
3:53 PM,53.1,52.0,96,29.81,5.0,NNE,4.6,-,0.03,Rain,Light Rain,30,2012-10-30 22:53:00
5:41 PM,53.6,51.8,94,29.77,5.0,Variable,5.8,-,0.03,Rain,Light Rain,0,2012-10-31 00:41:00
5:53 PM,53.1,52.0,96,29.77,5.0,ENE,5.8,-,0.04,Rain,Light Rain,60,2012-10-31 00:53:00
6:01 PM,53.6,51.8,94,29.76,5.0,ENE,9.2,-,0.00,Rain,Light Rain,60,2012-10-31 01:01:00
6:53 PM,53.1,52.0,96,29.75,10.0,NE,5.8,16.1,0.01,Rain,Light Rain,50,2012-10-31 01:53:00
7:07 PM,53.6,51.8,94,29.76,9.0,Variable,5.8,-,0.00,Rain,Light Rain,0,2012-10-31 02:07:00
7:16 PM,53.6,51.8,94,29.75,7.0,Variable,5.8,-,0.00,Rain,Light Rain,0,2012-10-31 02:16:00
7:40 PM,53.6,51.8,94,29.74,9.0,NE,10.4,18.4,0.01,Rain,Light Rain,40,2012-10-31 02:40:00
7:53 PM,54.0,52.0,93,29.74,10.0,NE,8.1,-,0.01,Rain,Light Rain,40,2012-10-31 02:53:00
8:26 PM,53.6,51.8,94,29.73,10.0,NNE,6.9,-,0.00,Rain,Light Rain,30,2012-10-31 03:26:00
8:53 PM,54.0,52.0,93,29.72,10.0,NNE,9.2,-,0.00,Rain,Light Rain,30,2012-10-31 03:53:00
9:12 PM,55.4,53.6,94,29.72,10.0,ENE,5.8,-,0.00,Rain,Light Rain,60,2012-10-31 04:12:00
9:53 PM,55.9,55.0,97,29.73,10.0,East,8.1,-,0.00,,Overcast,80,2012-10-31 04:53:00
10:53 PM,55.0,54.0,96,29.73,10.0,NNE,3.5,-,0.00,Rain,Light Rain,20,2012-10-31 05:53:00
11:05 PM,55.4,55.4,100,29.73,9.0,NNE,3.5,-,0.00,Rain,Light Rain,30,2012-10-31 06:05:00
11:16 PM,55.4,55.4,100,29.73,9.0,Calm,Calm,-,0.00,Rain,Light Rain,0,2012-10-31 06:16:00
11:53 PM,52.0,52.0,100,29.73,6.0,Calm,Calm,-,0.00,Rain,Light Rain,0,2012-10-31 06:53:00